This is the latest recevied weather packets stored in our database for station/object KC7UNY-13. If no packets are shown the sender has not sent any weather packets the latest 10 day(s).
| Time | Temp. | Humidity | Pressure | Rain* | Wind** | Luminosity | Snow |
|---|---|---|---|---|---|---|---|
| 1777394948 | 26.11° C | 24% | 1016.9 hPa | 0 mm | - | 573 W/m² | - |
| 1777394644 | 26.11° C | 24% | 1016.9 hPa | 0 mm | - | 558 W/m² | - |
| 1777394340 | 25.56° C | 25% | 1016.9 hPa | 0 mm | - | 543 W/m² | - |
| 1777394036 | 24.44° C | 26% | 1016.9 hPa | 0 mm | - | 531 W/m² | - |
| 1777393731 | 24.44° C | 26% | 1017 hPa | 0 mm | - | 513 W/m² | - |
| 1777393426 | 23.89° C | 26% | 1017 hPa | 0 mm | - | 497 W/m² | - |
| 1777393123 | 23.89° C | 26% | 1016.8 hPa | 0 mm | - | 482 W/m² | - |
| 1777392819 | 23.33° C | 26% | 1016.9 hPa | 0 mm | - | 463 W/m² | - |
| 1777392514 | 23.89° C | 26% | 1017 hPa | 0 mm | - | 450 W/m² | - |
| 1777392211 | 23.33° C | 27% | 1016.9 hPa | 0 mm | - | 434 W/m² | - |
| 1777391906 | 23.33° C | 27% | 1016.9 hPa | 0 mm | - | 417 W/m² | - |
| 1777391601 | 23.89° C | 26% | 1017 hPa | 0 mm | - | 400 W/m² | - |
| 1777391297 | 23.33° C | 27% | 1017 hPa | 0 mm | - | 385 W/m² | - |
| 1777390995 | 23.33° C | 27% | 1017 hPa | 0 mm | - | 371 W/m² | - |
| 1777390690 | 23.33° C | 28% | 1017.1 hPa | 0 mm | - | 351 W/m² | - |
| 1777390387 | 22.22° C | 29% | 1017 hPa | 0 mm | - | 336 W/m² | - |
| 1777390083 | 22.22° C | 29% | 1017.1 hPa | 0 mm | - | 319 W/m² | - |
| 1777389780 | 21.67° C | 29% | 1016.7 hPa | 0 mm | - | 310 W/m² | - |
| 1777389476 | 21.67° C | 30% | 1016.8 hPa | 0 mm | - | 284 W/m² | - |
| 1777389174 | 21.67° C | 31% | 1017 hPa | 0 mm | - | 271 W/m² | - |
| 1777388871 | 21.11° C | 31% | 1016.8 hPa | 0 mm | - | 137 W/m² | - |
| 1777388568 | 21.11° C | 31% | 1016.6 hPa | 0 mm | - | 239 W/m² | - |
| 1777388264 | 20.56° C | 32% | 1016.7 hPa | 0 mm | - | 224 W/m² | - |
| 1777387964 | 20.56° C | 32% | 1016.7 hPa | 0 mm | - | 210 W/m² | - |
| 1777387661 | 20° C | 33% | 1016.6 hPa | 0 mm | - | 195 W/m² | - |
* Rain latest hour (hover to see other rain measurements)
** Current wind speed in m/s (hover to see current wind gust speed)